Regional Weather Roundup
Issued by NWS

Home | Current Version | Previous Version | Graphics & Text | Print | Product List | Glossary On
Versions: 1 2 3 4 5 6 7 8 9 10 11 12 13 14 15 16 17 18 19 20 21 22 23 24 25 26 27 28 29 30 31 32 33 34 35 36 37 38 39 40 41 42 43 44
183
ASUS44 KJAN 042110
RWRMS

MISSISSIPPI HOURLY WEATHER ROUNDUP
NATIONAL WEATHER SERVICE JACKSON MS
300 PM CST WED MAR 04 2015

NOTE: "FAIR: INDICATES FEW OR NO CLOUDS BELOW 12,000 FEET WITH NO
SIGNIFICANT WEATHER AND/OR OBSTRUCTIONS TO VISIBILITY.

MSZ001>002-007>008-010>013-018>021-025>028-034>036-042200-
NORTHWEST MISSISSIPPI

CITY           SKY/WX    TMP DP  RH WIND       PRES   REMARKS
CLARKSDALE     CLOUDY    37  37 100 N28G35    29.99R VSB 1   WCI  25
CLEVELAND      LGT RAIN  41  41  99 N26G35    29.92S
GREENWOOD      CLOUDY    51  45  79 N14G23    29.88R
GREENVILLE     CLOUDY    44  40  85 N26G36    29.91R
OLIVE BRANCH   RAIN      36  36 100 N17G29    29.99R VSB 1   WCI  25
OXFORD         CLOUDY    41  39  93 N14G23    29.94R
TUNICA         SNOW      36  34  93 N20G28    30.02R VSB 1/2 WCI  25
$$

MSZ003>006-009-014>017-022>024-029>033-037>039-042200-
NORTHEAST MISSISSIPPI

CITY           SKY/WX    TMP DP  RH WIND       PRES   REMARKS
COLUMBUS AFB   PTSUNNY   82  60  46 SW22      29.80F
CORINTH        CLOUDY    45  41  87 N17G26    29.91R
GOLDN TRIANGLE PTSUNNY   81  61  50 SW18G30   29.82F
STARKVILLE     MOCLDY    79  59  50 SW14G23   29.81F
TUPELO         CLOUDY    55  51  86 N15G23    29.85R
$$

MSZ040-058-042200-
CENTRAL MISSISSIPPI

CITY           SKY/WX    TMP DP  RH WIND       PRES   REMARKS
JACKSON INTL   PTSUNNY   82  61  48 S14       29.85F
JACKSON HAWKNS PTSUNNY   81  61  50 S17G23    29.85F
MERIDIAN KEY   PTSUNNY   80  62  54 S17G24    29.88F
MERIDIAN NAS   MOSUNNY   81  60  48 SW16G25   29.86F
VICKSBURG      PTSUNNY   78  63  59 SW12G20   29.85F
$$

MSZ059>079-042200-
SOUTH MISSISSIPPI

CITY           SKY/WX    TMP DP  RH WIND       PRES   REMARKS
BROOKHAVEN     FAIR      81  72  74 S14G22    29.89F
HATTIESBURG    MOSUNNY   81  65  58 S16G24    29.90F
MCCOMB         PTSUNNY   82  62  50 S13G20    29.87F
NATCHEZ        NOT AVBL
PINE BELT      MOSUNNY   81  66  61 S12G17    29.90F
$$

MSZ080>082-042200-
COASTAL MISSISSIPPI

CITY           SKY/WX    TMP DP  RH WIND       PRES   REMARKS
BAY ST LOUIS   PTSUNNY   77  66  69 S13       29.92F
BILOXI         PTSUNNY   70  68  94 SW9       29.94S
PASCAGOULA     CLOUDY    74  69  85 S12G20    29.94F
GULFPORT       CLOUDY    71  68  90 S9        29.94F FOG
$$



USA.gov is the U.S. government's official web portal to all federal, state and local government web resources and services.